TimeEST,TemperatureF,Dew PointF,Humidity,Sea Level PressureIn,VisibilityMPH,Wind Direction,Wind SpeedMPH,Gust SpeedMPH,PrecipitationIn,Events,Conditions,WindDirDegrees,DateUTC
12:54 AM,1.9,-2.9,80,30.29,10.0,Calm,Calm,-,N/A,,Partly Cloudy,0,2013-02-11 05:54:00
1:54 AM,1.9,-2.0,83,30.25,10.0,Calm,Calm,-,N/A,,Clear,0,2013-02-11 06:54:00
2:54 AM,3.0,-2.0,80,30.22,10.0,Calm,Calm,-,N/A,,Clear,0,2013-02-11 07:54:00
3:54 AM,8.1,3.0,80,30.18,10.0,Calm,Calm,-,N/A,,Clear,0,2013-02-11 08:54:00
4:54 AM,10.0,6.1,84,30.13,10.0,Calm,Calm,-,N/A,,Overcast,0,2013-02-11 09:54:00
5:54 AM,19.0,9.0,65,30.09,10.0,SSE,4.6,-,N/A,,Clear,160,2013-02-11 10:54:00
6:54 AM,24.1,7.0,48,30.06,10.0,SSE,5.8,-,N/A,,Overcast,160,2013-02-11 11:54:00
7:54 AM,26.1,5.0,41,30.04,10.0,SSW,11.5,18.4,N/A,,Overcast,200,2013-02-11 12:54:00
8:54 AM,27.0,7.0,43,30.01,10.0,SSW,4.6,-,N/A,,Overcast,200,2013-02-11 13:54:00
9:54 AM,28.0,10.9,49,29.97,9.0,SSW,8.1,-,0.00,Snow,Light Snow,210,2013-02-11 14:54:00
10:54 AM,27.0,16.0,63,29.93,5.0,SSW,6.9,-,0.01,Snow,Light Snow,200,2013-02-11 15:54:00
11:11 AM,26.6,17.6,69,29.88,1.8,SSW,5.8,-,0.00,Snow,Light Snow,200,2013-02-11 16:11:00
11:20 AM,26.6,19.4,74,29.86,1.0,South,6.9,-,0.01,Snow,Light Snow,190,2013-02-11 16:20:00
11:24 AM,26.6,19.4,74,29.86,2.0,South,5.8,-,0.01,Snow,Light Snow,180,2013-02-11 16:24:00
11:31 AM,26.6,19.4,74,29.86,2.0,South,5.8,-,0.01,Snow,Light Snow,190,2013-02-11 16:31:00
11:38 AM,26.6,21.2,80,29.85,1.8,Calm,Calm,-,0.01,Snow,Light Snow,0,2013-02-11 16:38:00
11:42 AM,26.6,21.2,80,29.85,3.0,Variable,3.5,-,0.01,Snow,Light Snow,0,2013-02-11 16:42:00
11:54 AM,27.0,21.9,81,29.88,7.0,SSE,3.5,-,0.01,Snow,Light Snow,160,2013-02-11 16:54:00
12:54 PM,28.0,21.9,78,29.84,10.0,East,4.6,-,0.00,,Overcast,100,2013-02-11 17:54:00
1:23 PM,28.4,24.8,86,29.77,1.8,South,3.5,-,0.00,Snow,Light Snow,170,2013-02-11 18:23:00
1:39 PM,28.4,24.8,86,29.75,3.0,SSE,4.6,-,0.01,Snow,Light Snow,160,2013-02-11 18:39:00
1:54 PM,30.0,25.0,82,29.79,10.0,ESE,3.5,-,0.01,,Overcast,120,2013-02-11 18:54:00
2:06 PM,30.2,26.6,86,29.73,10.0,ESE,5.8,-,N/A,,Overcast,120,2013-02-11 19:06:00
2:54 PM,30.9,26.1,82,29.75,10.0,SE,5.8,-,0.00,,Overcast,130,2013-02-11 19:54:00
3:54 PM,32.0,27.0,82,29.73,10.0,SSE,4.6,-,N/A,,Overcast,150,2013-02-11 20:54:00
4:54 PM,33.1,28.9,85,29.69,10.0,Variable,3.5,-,N/A,,Overcast,0,2013-02-11 21:54:00
5:54 PM,33.1,28.9,85,29.65,10.0,Calm,Calm,-,N/A,,Overcast,0,2013-02-11 22:54:00
6:54 PM,33.1,28.9,85,29.65,10.0,South,4.6,-,N/A,,Overcast,170,2013-02-11 23:54:00
7:54 PM,33.1,28.9,85,29.64,10.0,Calm,Calm,-,0.00,Rain,Light Rain,0,2013-02-12 00:54:00
8:19 PM,32.0,28.4,87,29.61,6.0,Calm,Calm,-,0.01,,Overcast,0,2013-02-12 01:19:00
8:54 PM,33.1,30.0,89,29.64,6.0,Calm,Calm,-,0.03,,Overcast,0,2013-02-12 01:54:00
9:27 PM,33.8,30.2,87,29.61,3.0,Calm,Calm,-,0.03,Rain,Light Freezing Rain,0,2013-02-12 02:27:00
9:54 PM,33.1,30.0,89,29.62,4.0,Calm,Calm,-,0.05,Rain,Light Freezing Rain,0,2013-02-12 02:54:00
10:04 PM,33.8,30.2,87,29.58,4.0,Calm,Calm,-,0.01,Rain,Light Freezing Rain,0,2013-02-12 03:04:00
10:43 PM,35.6,32.0,87,29.58,10.0,West,4.6,-,0.01,,Overcast,270,2013-02-12 03:43:00
10:54 PM,37.9,33.1,83,29.61,10.0,Variable,5.8,-,0.01,,Overcast,0,2013-02-12 03:54:00
11:24 PM,37.4,30.2,75,29.57,10.0,NNW,3.5,-,0.00,,Overcast,340,2013-02-12 04:24:00
11:54 PM,35.1,30.9,85,29.61,10.0,Variable,3.5,-,0.00,,Mostly Cloudy,0,2013-02-12 04:54:00